EJU1933 LPFR-GMMI

Flight info

Callsign EJU1933
Flight time 1h 17m
Altitude 19000
Route OSLAD R724 ESS
Aircraft A320/M-SDE3FGHIRWY/LB1

Departure

Time 2026-05-04 20:12
Airport Faro - Gago Coutinho International Airport (LPFR)

Arrival

Time 2026-05-04 21:29
Airport Essaouira-Mogador Airport (GMMI)
Time Latitude Longitude Altitude Speed Heading
2026-05-04 20:01 37.01651 -7.96170 20 ft 0 kts 189°
2026-05-04 20:04 37.01660 -7.96168 20 ft 4 kts 189°
2026-05-04 20:04 37.01687 -7.96162 21 ft 4 kts 189°
2026-05-04 20:04 37.01708 -7.96158 24 ft 4 kts 176°
2026-05-04 20:05 37.01730 -7.96168 22 ft 4 kts 120°
2026-05-04 20:05 37.01736 -7.96197 21 ft 3 kts 99°
2026-05-04 20:05 37.01737 -7.96202 20 ft 0 kts 99°
2026-05-04 20:09 37.01687 -7.96074 20 ft 25 kts 154°
2026-05-04 20:10 37.01554 -7.96075 20 ft 15 kts 137°
2026-05-04 20:10 37.01538 -7.95927 21 ft 25 kts 102°
2026-05-04 20:10 37.01453 -7.95832 22 ft 9 kts 208°
2026-05-04 20:10 37.01428 -7.95841 20 ft 4 kts 193°
2026-05-04 20:11 37.01347 -7.95921 21 ft 15 kts 275°
2026-05-04 20:11 37.01399 -7.96245 23 ft 73 kts 282°
2026-05-04 20:11 37.01526 -7.97150 20 ft 134 kts 278°
2026-05-04 20:11 37.01704 -7.98366 520 ft 140 kts 282°
2026-05-04 20:12 37.01893 -7.99649 979 ft 161 kts 283°
2026-05-04 20:12 37.02112 -8.01126 1364 ft 184 kts 284°
2026-05-04 20:12 37.02358 -8.02790 1880 ft 200 kts 284°
2026-05-04 20:12 37.02609 -8.04519 2711 ft 204 kts 284°
2026-05-04 20:13 37.02857 -8.06291 3442 ft 215 kts 279°
2026-05-04 20:13 37.02612 -8.08245 3860 ft 246 kts 245°
2026-05-04 20:13 37.01354 -8.09810 4470 ft 270 kts 207°
2026-05-04 20:13 36.99554 -8.10508 5437 ft 273 kts 194°
2026-05-04 20:14 36.97672 -8.10931 6426 ft 276 kts 190°
2026-05-04 20:14 36.95760 -8.11262 7317 ft 279 kts 189°
2026-05-04 20:14 36.93815 -8.11584 8190 ft 283 kts 191°
2026-05-04 20:14 36.91852 -8.11928 9084 ft 286 kts 191°
2026-05-04 20:15 36.89870 -8.12299 9962 ft 290 kts 193°
2026-05-04 20:15 36.87828 -8.12701 10453 ft 308 kts 193°
2026-05-04 20:15 36.85636 -8.13152 10714 ft 331 kts 193°
2026-05-04 20:15 36.83285 -8.13646 10934 ft 354 kts 193°
2026-05-04 20:16 36.80812 -8.14167 11148 ft 375 kts 193°
2026-05-04 20:16 36.78208 -8.14712 11684 ft 383 kts 193°
2026-05-04 20:16 36.75564 -8.15257 12353 ft 387 kts 193°
2026-05-04 20:16 36.72891 -8.15801 13045 ft 391 kts 193°
2026-05-04 20:17 36.70191 -8.16349 13706 ft 395 kts 193°
2026-05-04 20:17 36.67468 -8.16908 14351 ft 398 kts 193°
2026-05-04 20:17 36.64727 -8.17472 14969 ft 401 kts 193°
2026-05-04 20:17 36.61960 -8.18044 15581 ft 404 kts 193°
2026-05-04 20:18 36.59177 -8.18621 16187 ft 407 kts 193°
2026-05-04 20:18 36.56368 -8.19202 16786 ft 410 kts 193°
2026-05-04 20:18 36.53546 -8.19787 17379 ft 413 kts 193°
2026-05-04 20:18 36.50693 -8.20376 17946 ft 417 kts 193°
2026-05-04 20:19 36.47823 -8.20965 18487 ft 420 kts 193°
2026-05-04 20:19 36.44933 -8.21556 18916 ft 423 kts 193°
2026-05-04 20:19 36.42023 -8.22153 19076 ft 423 kts 193°
2026-05-04 20:19 36.39121 -8.22751 19126 ft 435 kts 193°
2026-05-04 20:20 36.36107 -8.23375 19127 ft 442 kts 193°
2026-05-04 20:20 36.33070 -8.23998 19127 ft 444 kts 193°
2026-05-04 20:20 36.30022 -8.24619 19127 ft 444 kts 193°
2026-05-04 20:20 36.26972 -8.25239 19127 ft 444 kts 193°
2026-05-04 20:21 36.23924 -8.25855 19129 ft 444 kts 193°
2026-05-04 20:21 36.20874 -8.26473 19112 ft 444 kts 193°
2026-05-04 20:21 36.14781 -8.27715 19130 ft 443 kts 193°
2026-05-04 20:22 36.11735 -8.28339 19130 ft 443 kts 193°
2026-05-04 20:22 36.08688 -8.28964 19131 ft 444 kts 193°
2026-05-04 20:22 36.05643 -8.29588 19133 ft 444 kts 193°
2026-05-04 20:22 36.02594 -8.30214 19134 ft 444 kts 193°
2026-05-04 20:23 35.99545 -8.30836 19135 ft 444 kts 193°
2026-05-04 20:23 35.96500 -8.31486 19137 ft 442 kts 196°
2026-05-04 20:23 35.93564 -8.32402 19129 ft 441 kts 198°
2026-05-04 20:23 35.90593 -8.33351 19133 ft 441 kts 198°
2026-05-04 20:24 35.87582 -8.34310 19135 ft 441 kts 198°
2026-05-04 20:24 35.84649 -8.35243 19140 ft 441 kts 198°
2026-05-04 20:24 35.81673 -8.36185 19142 ft 441 kts 198°
2026-05-04 20:24 35.78698 -8.37125 19143 ft 441 kts 198°
2026-05-04 20:25 35.75714 -8.38069 19144 ft 442 kts 198°
2026-05-04 20:25 35.72741 -8.39009 19146 ft 442 kts 198°
2026-05-04 20:25 35.69768 -8.39949 19146 ft 442 kts 198°
2026-05-04 20:25 35.66793 -8.40887 19147 ft 442 kts 198°
2026-05-04 20:26 35.63809 -8.41822 19148 ft 442 kts 198°
2026-05-04 20:26 35.60832 -8.42756 19148 ft 442 kts 198°
2026-05-04 20:26 35.57854 -8.43693 19148 ft 441 kts 198°
2026-05-04 20:26 35.54879 -8.44635 19147 ft 441 kts 198°
2026-05-04 20:27 35.51900 -8.45576 19144 ft 441 kts 198°
2026-05-04 20:27 35.48926 -8.46512 19144 ft 441 kts 198°
2026-05-04 20:27 35.45950 -8.47445 19144 ft 441 kts 198°
2026-05-04 20:27 35.42980 -8.48376 19137 ft 441 kts 198°
2026-05-04 20:28 35.40006 -8.49306 19139 ft 441 kts 198°
2026-05-04 20:28 35.37072 -8.50226 19142 ft 441 kts 198°
2026-05-04 20:28 35.34101 -8.51156 19139 ft 440 kts 198°
2026-05-04 20:28 35.31130 -8.52086 19137 ft 440 kts 198°
2026-05-04 20:29 35.28163 -8.53016 19138 ft 440 kts 198°
2026-05-04 20:29 35.25192 -8.53943 19137 ft 440 kts 198°
2026-05-04 20:29 35.22223 -8.54872 19133 ft 440 kts 198°
2026-05-04 20:29 35.19254 -8.55802 19117 ft 440 kts 198°
2026-05-04 20:30 35.16292 -8.56727 19121 ft 440 kts 198°
2026-05-04 20:30 35.13321 -8.57650 19125 ft 440 kts 198°
2026-05-04 20:30 35.10351 -8.58570 19127 ft 440 kts 198°
2026-05-04 20:30 35.07387 -8.59492 19129 ft 440 kts 198°
2026-05-04 20:31 35.04423 -8.60418 19134 ft 440 kts 198°
2026-05-04 20:31 35.01456 -8.61345 19136 ft 440 kts 198°
2026-05-04 20:31 34.98523 -8.62257 19141 ft 440 kts 198°
2026-05-04 20:31 34.95554 -8.63178 19140 ft 440 kts 198°
2026-05-04 20:32 34.92544 -8.64107 19128 ft 440 kts 198°
2026-05-04 20:32 34.89574 -8.65025 19133 ft 440 kts 198°
2026-05-04 20:32 34.86639 -8.65932 19138 ft 440 kts 198°
2026-05-04 20:32 34.83667 -8.66848 19141 ft 440 kts 198°
2026-05-04 20:33 34.80694 -8.67763 19136 ft 440 kts 198°
2026-05-04 20:33 34.77726 -8.68682 19138 ft 440 kts 198°
2026-05-04 20:33 34.74757 -8.69603 19138 ft 440 kts 198°
2026-05-04 20:33 34.71788 -8.70517 19143 ft 441 kts 198°
2026-05-04 20:34 34.68813 -8.71431 19142 ft 441 kts 198°
2026-05-04 20:34 34.65843 -8.72344 19130 ft 441 kts 198°
2026-05-04 20:34 34.62872 -8.73256 19130 ft 441 kts 198°
2026-05-04 20:34 34.59894 -8.74169 19130 ft 441 kts 198°
2026-05-04 20:35 34.56923 -8.75087 19131 ft 441 kts 198°
2026-05-04 20:35 34.53949 -8.76005 19132 ft 441 kts 198°
2026-05-04 20:35 34.50974 -8.76920 19135 ft 441 kts 198°
2026-05-04 20:35 34.47993 -8.77833 19135 ft 441 kts 198°
2026-05-04 20:36 34.45016 -8.78744 19139 ft 441 kts 197°
2026-05-04 20:36 34.42039 -8.79651 19139 ft 441 kts 197°
2026-05-04 20:36 34.39062 -8.80558 19129 ft 441 kts 197°
2026-05-04 20:36 34.36086 -8.81467 19131 ft 441 kts 197°
2026-05-04 20:37 34.33110 -8.82372 19132 ft 441 kts 197°
2026-05-04 20:37 34.30135 -8.83271 19132 ft 441 kts 197°
2026-05-04 20:37 34.27153 -8.84169 19133 ft 441 kts 197°
2026-05-04 20:37 34.24176 -8.85068 19132 ft 441 kts 197°
2026-05-04 20:38 34.21236 -8.85956 19131 ft 440 kts 197°
2026-05-04 20:38 34.18266 -8.86857 19127 ft 440 kts 197°
2026-05-04 20:38 34.15293 -8.87759 19114 ft 440 kts 197°
2026-05-04 20:38 34.12324 -8.88659 19117 ft 440 kts 197°
2026-05-04 20:39 34.09352 -8.89560 19119 ft 440 kts 197°
2026-05-04 20:39 34.06380 -8.90460 19122 ft 440 kts 197°
2026-05-04 20:39 34.03417 -8.91354 19123 ft 440 kts 197°
2026-05-04 20:39 34.00450 -8.92247 19126 ft 440 kts 197°
2026-05-04 20:40 33.97476 -8.93139 19128 ft 440 kts 197°
2026-05-04 20:40 33.94505 -8.94030 19134 ft 440 kts 197°
2026-05-04 20:40 33.91538 -8.94924 19132 ft 440 kts 197°
2026-05-04 20:40 33.88565 -8.95820 19117 ft 440 kts 197°
2026-05-04 20:41 33.85593 -8.96711 19125 ft 440 kts 197°
2026-05-04 20:41 33.82614 -8.97604 19123 ft 440 kts 197°
2026-05-04 20:41 33.79637 -8.98499 19128 ft 440 kts 197°
2026-05-04 20:41 33.76664 -8.99388 19131 ft 440 kts 197°
2026-05-04 20:42 33.73724 -9.00265 19127 ft 440 kts 197°
2026-05-04 20:42 33.70744 -9.01157 19131 ft 440 kts 197°
2026-05-04 20:42 33.67774 -9.02043 19134 ft 441 kts 197°
2026-05-04 20:42 33.64798 -9.02929 19137 ft 441 kts 197°
2026-05-04 20:43 33.61819 -9.03820 19120 ft 441 kts 197°
2026-05-04 20:43 33.58840 -9.04712 19126 ft 441 kts 197°
2026-05-04 20:43 33.55859 -9.05601 19128 ft 441 kts 197°
2026-05-04 20:43 33.52880 -9.06487 19133 ft 441 kts 197°
2026-05-04 20:44 33.49904 -9.07375 19139 ft 441 kts 197°
2026-05-04 20:44 33.46921 -9.08265 19143 ft 441 kts 197°
2026-05-04 20:44 33.43939 -9.09154 19142 ft 441 kts 197°
2026-05-04 20:44 33.40959 -9.10043 19146 ft 441 kts 197°
2026-05-04 20:45 33.38018 -9.10919 19148 ft 441 kts 197°
2026-05-04 20:45 33.35038 -9.11808 19144 ft 441 kts 197°
2026-05-04 20:45 33.32060 -9.12695 19132 ft 441 kts 197°
2026-05-04 20:45 33.29081 -9.13579 19137 ft 441 kts 197°
2026-05-04 20:46 33.26102 -9.14461 19141 ft 441 kts 197°
2026-05-04 20:46 33.23121 -9.15344 19144 ft 441 kts 197°
2026-05-04 20:46 33.20140 -9.16224 19145 ft 441 kts 197°
2026-05-04 20:46 33.17152 -9.17105 19146 ft 441 kts 197°
2026-05-04 20:47 33.14172 -9.17968 19145 ft 441 kts 196°
2026-05-04 20:47 33.11170 -9.18776 19146 ft 442 kts 195°
2026-05-04 20:47 33.08214 -9.19594 19147 ft 441 kts 197°
2026-05-04 20:47 33.05196 -9.20484 19146 ft 441 kts 197°
2026-05-04 20:48 33.02259 -9.21378 19144 ft 441 kts 197°
2026-05-04 20:48 32.99287 -9.22288 19145 ft 441 kts 197°
2026-05-04 20:48 32.96307 -9.23191 19147 ft 441 kts 197°
2026-05-04 20:48 32.93327 -9.24083 19150 ft 441 kts 197°
2026-05-04 20:49 32.90346 -9.24961 19144 ft 441 kts 197°
2026-05-04 20:49 32.87367 -9.25832 19148 ft 441 kts 197°
2026-05-04 20:49 32.84386 -9.26703 19143 ft 441 kts 197°
2026-05-04 20:49 32.81400 -9.27579 19146 ft 441 kts 197°
2026-05-04 20:50 32.78424 -9.28450 19137 ft 441 kts 197°
2026-05-04 20:50 32.76443 -9.29029 19134 ft 441 kts 197°
2026-05-04 20:50 32.73463 -9.29898 19138 ft 440 kts 197°
2026-05-04 20:50 32.69526 -9.31049 19129 ft 440 kts 197°
2026-05-04 20:51 32.66551 -9.31917 19127 ft 440 kts 197°
2026-05-04 20:51 32.63573 -9.32784 19128 ft 440 kts 197°
2026-05-04 20:51 32.60599 -9.33651 19128 ft 440 kts 197°
2026-05-04 20:51 32.57626 -9.34535 19122 ft 440 kts 198°
2026-05-04 20:52 32.54675 -9.35492 19120 ft 439 kts 199°
2026-05-04 20:52 32.52727 -9.36156 19098 ft 439 kts 200°
2026-05-04 20:52 32.49801 -9.37178 19109 ft 438 kts 200°
2026-05-04 20:52 32.46881 -9.38200 19110 ft 438 kts 200°
2026-05-04 20:53 32.43955 -9.39209 19115 ft 438 kts 199°
2026-05-04 20:53 32.41021 -9.40200 19113 ft 437 kts 199°
2026-05-04 20:53 32.38092 -9.41176 19113 ft 437 kts 199°
2026-05-04 20:53 32.35158 -9.42148 19102 ft 437 kts 199°
2026-05-04 20:54 32.32227 -9.43118 19106 ft 437 kts 199°
2026-05-04 20:54 32.29300 -9.44084 19104 ft 437 kts 199°
2026-05-04 20:54 32.26369 -9.45055 19066 ft 437 kts 199°
2026-05-04 20:54 32.23441 -9.46028 18238 ft 437 kts 199°
2026-05-04 20:55 32.20514 -9.47003 17352 ft 434 kts 199°
2026-05-04 20:55 32.17628 -9.47960 16558 ft 428 kts 199°
2026-05-04 20:55 32.14840 -9.48877 16394 ft 405 kts 199°
2026-05-04 20:55 32.12175 -9.49752 16139 ft 396 kts 199°
2026-05-04 20:56 32.09516 -9.50634 15442 ft 396 kts 199°
2026-05-04 20:56 32.06868 -9.51515 14770 ft 395 kts 199°
2026-05-04 20:56 32.04265 -9.52377 14124 ft 393 kts 199°
2026-05-04 20:56 32.01638 -9.53248 13414 ft 391 kts 199°
2026-05-04 20:57 31.99033 -9.54110 12783 ft 386 kts 199°
2026-05-04 20:57 31.96457 -9.54958 12151 ft 382 kts 199°
2026-05-04 20:57 31.93914 -9.55792 11531 ft 377 kts 198°
2026-05-04 20:57 31.91432 -9.56606 11341 ft 361 kts 198°
2026-05-04 20:58 31.89064 -9.57380 11209 ft 344 kts 199°
2026-05-04 20:58 31.86808 -9.58118 11091 ft 329 kts 199°
2026-05-04 20:58 31.84646 -9.58826 10978 ft 316 kts 199°
2026-05-04 20:58 31.82570 -9.59507 10851 ft 304 kts 199°
2026-05-04 20:59 31.80566 -9.60168 10638 ft 296 kts 199°
2026-05-04 20:59 31.78605 -9.60821 10575 ft 292 kts 199°
2026-05-04 20:59 31.76647 -9.61472 10475 ft 292 kts 200°
2026-05-04 20:59 31.74719 -9.62109 10350 ft 291 kts 200°
2026-05-04 21:00 31.72744 -9.62758 10219 ft 291 kts 200°
2026-05-04 21:00 31.70789 -9.63398 10082 ft 291 kts 198°
2026-05-04 21:00 31.68846 -9.64035 9731 ft 295 kts 199°
2026-05-04 21:00 31.66868 -9.64684 9298 ft 294 kts 198°
2026-05-04 21:01 31.64896 -9.65329 8897 ft 293 kts 198°
2026-05-04 21:01 31.62933 -9.65970 8484 ft 292 kts 197°
2026-05-04 21:01 31.60981 -9.66608 8078 ft 290 kts 197°
2026-05-04 21:01 31.59051 -9.67240 7683 ft 284 kts 196°
2026-05-04 21:02 31.57192 -9.67846 7309 ft 271 kts 195°
2026-05-04 21:02 31.55415 -9.68427 6945 ft 259 kts 195°
2026-05-04 21:02 31.53739 -9.68978 6605 ft 248 kts 195°
2026-05-04 21:02 31.52089 -9.69521 6256 ft 238 kts 194°
2026-05-04 21:03 31.50528 -9.70032 5929 ft 235 kts 194°
2026-05-04 21:03 31.48965 -9.70541 5602 ft 232 kts 194°
2026-05-04 21:03 31.47411 -9.71057 5258 ft 233 kts 197°
2026-05-04 21:03 31.45913 -9.71810 4926 ft 234 kts 202°
2026-05-04 21:04 31.44425 -9.72585 4579 ft 234 kts 201°
2026-05-04 21:04 31.42937 -9.73356 4263 ft 235 kts 201°
2026-05-04 21:04 31.41438 -9.74130 3945 ft 236 kts 201°
2026-05-04 21:04 31.39930 -9.74911 3615 ft 238 kts 201°
2026-05-04 21:05 31.38411 -9.75695 3284 ft 239 kts 201°
2026-05-04 21:05 31.36856 -9.76309 2975 ft 232 kts 180°
2026-05-04 21:05 31.35320 -9.76105 2620 ft 215 kts 161°
2026-05-04 21:05 31.33914 -9.75678 2553 ft 207 kts 158°
2026-05-04 21:06 31.32484 -9.75235 2921 ft 223 kts 161°
2026-05-04 21:06 31.30909 -9.74927 3349 ft 236 kts 176°
2026-05-04 21:06 31.29294 -9.75357 3585 ft 241 kts 198°
2026-05-04 21:06 31.27869 -9.76363 3833 ft 242 kts 222°
2026-05-04 21:07 31.26682 -9.77771 3955 ft 243 kts 232°
2026-05-04 21:07 31.26007 -9.79528 4002 ft 237 kts 267°
2026-05-04 21:07 31.26219 -9.81372 4004 ft 226 kts 301°
2026-05-04 21:07 31.27209 -9.82703 4006 ft 214 kts 336°
2026-05-04 21:08 31.28562 -9.83368 4006 ft 211 kts 347°
2026-05-04 21:08 31.29947 -9.83867 4008 ft 206 kts 348°
2026-05-04 21:08 31.31305 -9.84318 4011 ft 204 kts 349°
2026-05-04 21:08 31.32655 -9.84779 4009 ft 203 kts 348°
2026-05-04 21:09 31.34018 -9.85227 4011 ft 203 kts 348°
2026-05-04 21:09 31.35398 -9.85660 4013 ft 206 kts 349°
2026-05-04 21:09 31.36777 -9.86095 4011 ft 204 kts 348°
2026-05-04 21:09 31.38151 -9.86533 4013 ft 203 kts 349°
2026-05-04 21:10 31.39511 -9.86984 4013 ft 203 kts 348°
2026-05-04 21:10 31.40880 -9.87388 4010 ft 201 kts 355°
2026-05-04 21:10 31.42270 -9.87438 4002 ft 201 kts
2026-05-04 21:10 31.43655 -9.87168 4011 ft 201 kts 13°
2026-05-04 21:11 31.44952 -9.86646 4011 ft 196 kts 32°
2026-05-04 21:11 31.45741 -9.85838 4012 ft 198 kts 53°
2026-05-04 21:17 31.46341 -9.84574 3992 ft 203 kts 62°
2026-05-04 21:17 31.46930 -9.83095 3594 ft 198 kts 63°
2026-05-04 21:18 31.47492 -9.81648 3470 ft 198 kts 64°
2026-05-04 21:18 31.48068 -9.80167 3341 ft 201 kts 64°
2026-05-04 21:18 31.48655 -9.78667 3206 ft 202 kts 64°
2026-05-04 21:18 31.49235 -9.77183 2745 ft 198 kts 64°
2026-05-04 21:19 31.49806 -9.75729 2253 ft 195 kts 63°
2026-05-04 21:19 31.50268 -9.74251 1787 ft 194 kts 81°
2026-05-04 21:19 31.49977 -9.72745 1604 ft 191 kts 117°
2026-05-04 21:19 31.48965 -9.71731 1603 ft 199 kts 154°
2026-05-04 21:20 31.47948 -9.71381 1617 ft 201 kts 159°
2026-05-04 21:21 31.47931 -9.71375 1615 ft 201 kts 159°
2026-05-04 21:21 31.46593 -9.70911 1621 ft 201 kts 160°
2026-05-04 21:21 31.45194 -9.70906 1610 ft 207 kts 193°
2026-05-04 21:21 31.43827 -9.71480 1614 ft 211 kts 201°
2026-05-04 21:22 31.42546 -9.72124 1624 ft 213 kts 203°
2026-05-04 21:22 31.42204 -9.72303 1611 ft 212 kts 203°
2026-05-04 21:22 31.40864 -9.73004 1612 ft 211 kts 203°
2026-05-04 21:23 31.39564 -9.73687 1627 ft 194 kts 203°
2026-05-04 21:23 31.38404 -9.74297 1612 ft 174 kts 204°
2026-05-04 21:23 31.37846 -9.74608 1578 ft 168 kts 208°
2026-05-04 21:23 31.36802 -9.75184 1611 ft 165 kts 204°
2026-05-04 21:24 31.35761 -9.75701 1593 ft 160 kts 191°
2026-05-04 21:24 31.34687 -9.75651 1607 ft 152 kts 161°
2026-05-04 21:24 31.33678 -9.75295 1613 ft 151 kts 155°
2026-05-04 21:24 31.32683 -9.74890 1617 ft 151 kts 155°
2026-05-04 21:25 31.32668 -9.74884 1614 ft 151 kts 155°
2026-05-04 21:25 31.32197 -9.74689 1614 ft 151 kts 153°
2026-05-04 21:25 31.31275 -9.74159 1617 ft 143 kts 130°
2026-05-04 21:25 31.30940 -9.73199 1614 ft 124 kts 78°
2026-05-04 21:26 31.31156 -9.72223 1607 ft 124 kts 63°
2026-05-04 21:26 31.31484 -9.71274 1614 ft 127 kts 61°
2026-05-04 21:26 31.31831 -9.70313 1604 ft 128 kts 62°
2026-05-04 21:26 31.32198 -9.69343 1543 ft 131 kts 57°
2026-05-04 21:27 31.32851 -9.68680 1387 ft 125 kts 24°
2026-05-04 21:27 31.33676 -9.68298 1382 ft 129 kts 22°
2026-05-04 21:27 31.34513 -9.67928 1313 ft 130 kts 21°
2026-05-04 21:27 31.35345 -9.67509 1220 ft 131 kts 26°
2026-05-04 21:28 31.36214 -9.67249 993 ft 132 kts
2026-05-04 21:28 31.37116 -9.67175 801 ft 127 kts 358°
2026-05-04 21:28 31.37979 -9.67406 623 ft 129 kts 342°
2026-05-04 21:28 31.38818 -9.67808 454 ft 127 kts 346°
2026-05-04 21:29 31.39556 -9.68126 387 ft 81 kts 339°
2026-05-04 21:29 31.39898 -9.68280 374 ft 44 kts 339°
2026-05-04 21:29 31.40062 -9.68396 364 ft 18 kts 292°
2026-05-04 21:29 31.40089 -9.68528 366 ft 17 kts 290°
2026-05-04 21:30 31.40186 -9.68609 359 ft 20 kts 339°
2026-05-04 21:30 31.40299 -9.68656 355 ft 8 kts 340°
2026-05-04 21:30 31.40341 -9.68674 353 ft 3 kts 336°
2026-05-04 21:30 31.40343 -9.68692 357 ft 2 kts 270°
2026-05-04 21:31 31.40327 -9.68747 360 ft 4 kts 249°